Kalaeloa, HI

12:39 AM HST on December 14, 2017 (GMT -1000)
Kalaeloa (John Rodgers Field)

Weather History for PHJR - October, 2013

Change the Weather History Date:

Friday, October 25, 2013

  Actual Average (PHHI) Record (PHHI)
Temperature  
Mean Temperature 74 °F -  
Max Temperature 82 °F 79 °F 82 °F (1996)
Min Temperature 66 °F 67 °F 64 °F (1996)
Cooling Degree Days 9    
Growing Degree Days 24 (Base 50)    
Moisture  
Dew Point 68 °F    
Average Humidity 80    
Maximum Humidity 94    
Minimum Humidity 67    
Precipitation  
Precipitation 0.00 in - - ()
Sea Level Pressure  
Sea Level Pressure 30.00 in    
Wind  
Wind Speed 3 mph (ESE)    
Max Wind Speed 12 mph    
Max Gust Speed 21 mph    
Visibility 10 miles    
Events      
Averages and records for this station are not official NWS values.
T = Trace of Precipitation, MM = Missing Value Source: NWS Daily Summary

Daily Weather History Graph

Daily Weather History Graph

Search for Another Location

Airport or City:

Trip Planner

Search our weather history database for the weather conditions in past years. The results will help you decide how hot, cold, wet, or windy it might be!

Date:

Astronomy

Oct. 25, 2013 Rise Set
Actual Time 6:32 AM HST 6:00 PM HST
Civil Twilight 6:09 AM HST 6:22 PM HST
Nautical Twilight 5:43 AM HST 6:48 PM HST
Astronomical Twilight 5:17 AM HST 7:14 PM HST
Moon 11:38 PM HST (10/25) 12:09 PM HST (10/25)
Length of Visible Light 12h 13m
Length of Day
11h 27m
Waning Gibbous, 60% of the Moon is Illuminated
Oct 25
Waning Gibbous
Oct 26
Last Quarter
Nov 3
New
Nov 9
First Quarter
Nov 17
Full

Hourly Weather History & Observations

Time (HST) Temp. Heat Index Dew Point Humidity Pressure Visibility Wind Dir Wind Speed Gust Speed Precip Events Conditions
12:53 AM 69.1 °F - 64.0 °F 84% 30.01 in 10.0 mi Calm Calm - N/A   Clear
1:32 AM 69.8 °F - 64.4 °F 83% 29.99 in 10.0 mi Calm Calm - N/A   Partly Cloudy
1:53 AM 69.1 °F - 64.9 °F 87% 30.00 in 10.0 mi Calm Calm - N/A   Partly Cloudy
2:53 AM 69.1 °F - 64.9 °F 87% 30.00 in 10.0 mi Calm Calm - N/A   Clear
3:53 AM 68.0 °F - 64.9 °F 90% 29.99 in 10.0 mi Calm Calm - N/A   Clear
4:53 AM 68.0 °F - 64.9 °F 90% 29.99 in 10.0 mi Variable 3.5 mph - N/A   Clear
5:38 AM 66.2 °F - 64.4 °F 94% 29.97 in 10.0 mi Calm Calm - N/A   Partly Cloudy
5:53 AM 68.0 °F - 64.9 °F 90% 29.99 in 10.0 mi Calm Calm - N/A   Partly Cloudy
6:53 AM 66.9 °F - 64.0 °F 90% 30.01 in 10.0 mi Calm Calm - N/A   Scattered Clouds
7:53 AM 73.9 °F - 68.0 °F 82% 30.02 in 10.0 mi Variable 3.5 mph - N/A   Clear
8:53 AM 79.0 °F - 68.0 °F 69% 30.02 in 10.0 mi ENE 4.6 mph - N/A   Clear
9:53 AM 80.1 °F 82.7 °F 68.0 °F 67% 30.02 in 10.0 mi SE 8.1 mph - N/A   Clear
10:53 AM 81.0 °F 84.4 °F 70.0 °F 69% 30.02 in 10.0 mi SE 9.2 mph - N/A   Clear
11:53 AM 81.0 °F 84.9 °F 71.1 °F 72% 29.99 in 10.0 mi SE 11.5 mph 19.6 mph N/A   Clear
12:53 PM 81.0 °F 84.4 °F 70.0 °F 69% 29.97 in 10.0 mi SE 11.5 mph - N/A   Clear
1:53 PM 81.0 °F 84.9 °F 71.1 °F 72% 29.95 in 10.0 mi SE 11.5 mph 18.4 mph N/A   Clear
2:53 PM 82.0 °F 86.7 °F 72.0 °F 71% 29.94 in 10.0 mi SE 10.4 mph 19.6 mph N/A   Clear
3:53 PM 80.1 °F 83.6 °F 71.1 °F 74% 29.95 in 10.0 mi SE 11.5 mph 19.6 mph N/A   Clear
4:22 PM 78.8 °F - 71.6 °F 78% 29.94 in 10.0 mi ESE 10.4 mph 20.7 mph N/A   Partly Cloudy
4:53 PM 78.1 °F - 71.1 °F 79% 29.97 in 10.0 mi ESE 9.2 mph 19.6 mph N/A   Clear
5:53 PM 77.0 °F - 69.1 °F 76% 29.99 in 10.0 mi ESE 8.1 mph 17.3 mph N/A   Partly Cloudy
6:53 PM 75.9 °F - 66.9 °F 74% 30.00 in 10.0 mi Calm Calm - N/A   Mostly Cloudy
7:53 PM 75.0 °F - 66.9 °F 76% 30.03 in 10.0 mi Calm Calm - N/A   Scattered Clouds
8:09 PM 73.4 °F - 68.0 °F 83% 30.01 in 10.0 mi Calm Calm - N/A   Mostly Cloudy
8:53 PM 73.0 °F - 66.9 °F 81% 30.05 in 10.0 mi Calm Calm - N/A   Clear
9:53 PM 73.0 °F - 66.9 °F 81% 30.05 in 10.0 mi Calm Calm - N/A   Clear
10:53 PM 72.0 °F - 66.9 °F 84% 30.04 in 10.0 mi Calm Calm - N/A   Clear
11:53 PM 71.1 °F - 66.9 °F 87% 30.04 in 10.0 mi Variable 3.5 mph - N/A   Clear